Time,TemperatureF,DewpointF,PressureIn,WindDirection,WindDirectionDegrees,WindSpeedMPH,WindSpeedGustMPH,Humidity,HourlyPrecipIn,Conditions,Clouds,dailyrainin,SoftwareType,DateUTC
2013-06-14 00:00:00,54.3,52.9,29.68,SE,136,6.0,7.0,95,0.00,,,0.00,Wunderground v.1.15,2013-06-14 04:00:00,
2013-06-14 00:01:00,54.3,52.9,29.68,SE,145,7.0,7.0,95,0.00,,,0.00,Wunderground v.1.15,2013-06-14 04:01:00,
2013-06-14 00:02:00,54.3,52.9,29.67,SSE,147,7.0,7.0,95,0.00,,,0.00,Wunderground v.1.15,2013-06-14 04:02:00,
2013-06-14 00:04:00,54.3,53.2,29.67,SE,139,7.0,7.0,96,0.00,,,0.00,Wunderground v.1.15,2013-06-14 04:04:00,
2013-06-14 00:06:00,54.3,53.2,29.67,SE,139,7.0,7.0,96,0.00,,,0.00,Wunderground v.1.15,2013-06-14 04:06:00,
2013-06-14 00:10:00,54.2,53.1,29.67,SE,134,7.0,7.0,96,0.00,,,0.01,Wunderground v.1.15,2013-06-14 04:10:00,
2013-06-14 00:15:00,54.1,53.0,29.67,SE,129,9.0,9.0,96,0.00,,,0.01,Wunderground v.1.15,2013-06-14 04:15:00,
2013-06-14 00:21:00,54.1,52.7,29.67,ESE,120,8.0,8.0,95,0.00,,,0.01,Wunderground v.1.15,2013-06-14 04:21:00,
2013-06-14 00:26:00,54.1,52.7,29.67,ESE,118,7.0,8.0,95,0.00,,,0.01,Wunderground v.1.15,2013-06-14 04:26:00,
2013-06-14 00:31:00,54.1,52.7,29.66,ESE,113,7.0,7.0,95,0.00,,,0.02,Wunderground v.1.15,2013-06-14 04:31:00,
2013-06-14 00:36:00,54.2,52.8,29.66,ESE,107,7.0,8.0,95,0.00,,,0.02,Wunderground v.1.15,2013-06-14 04:36:00,
2013-06-14 00:41:00,54.2,52.8,29.66,ESE,114,7.0,8.0,95,0.00,,,0.02,Wunderground v.1.15,2013-06-14 04:41:00,
2013-06-14 00:46:00,54.2,52.8,29.66,ESE,110,10.0,10.0,95,0.00,,,0.02,Wunderground v.1.15,2013-06-14 04:46:00,
2013-06-14 00:51:00,54.1,52.7,29.66,ESE,107,12.0,12.0,95,0.00,,,0.03,Wunderground v.1.15,2013-06-14 04:51:00,
2013-06-14 00:56:00,54.2,53.1,29.66,ESE,113,11.0,12.0,96,0.00,,,0.03,Wunderground v.1.15,2013-06-14 04:56:00,
2013-06-14 01:01:00,54.1,53.0,29.66,ESE,115,11.0,11.0,96,0.00,,,0.03,Wunderground v.1.15,2013-06-14 05:01:00,
2013-06-14 01:06:00,54.2,52.8,29.66,ESE,113,10.0,11.0,95,0.00,,,0.03,Wunderground v.1.15,2013-06-14 05:06:00,
2013-06-14 01:12:00,54.2,52.8,29.65,ESE,115,11.0,11.0,95,0.00,,,0.03,Wunderground v.1.15,2013-06-14 05:12:00,
2013-06-14 01:17:00,54.2,52.8,29.65,ESE,116,10.0,11.0,95,0.00,,,0.04,Wunderground v.1.15,2013-06-14 05:17:00,
2013-06-14 01:22:00,54.2,52.8,29.66,ESE,117,11.0,11.0,95,0.00,,,0.04,Wunderground v.1.15,2013-06-14 05:22:00,
2013-06-14 01:27:00,54.2,52.8,29.66,ESE,115,11.0,11.0,95,0.00,,,0.04,Wunderground v.1.15,2013-06-14 05:27:00,
2013-06-14 01:32:00,54.2,52.8,29.66,ESE,116,12.0,12.0,95,0.00,,,0.04,Wunderground v.1.15,2013-06-14 05:32:00,
2013-06-14 01:38:00,54.2,52.8,29.66,ESE,119,11.0,12.0,95,0.04,,,0.05,Wunderground v.1.15,2013-06-14 05:38:00,
2013-06-14 01:43:00,54.2,52.8,29.66,ESE,119,12.0,13.0,95,0.04,,,0.05,Wunderground v.1.15,2013-06-14 05:43:00,
2013-06-14 01:48:00,54.1,52.7,29.66,ESE,114,11.0,13.0,95,0.04,,,0.05,Wunderground v.1.15,2013-06-14 05:48:00,
2013-06-14 01:53:00,54.1,53.0,29.65,ESE,115,13.0,13.0,96,0.00,,,0.06,Wunderground v.1.15,2013-06-14 05:53:00,
2013-06-14 01:58:00,54.1,53.0,29.65,ESE,116,14.0,14.0,96,0.00,,,0.06,Wunderground v.1.15,2013-06-14 05:58:00,
2013-06-14 02:03:00,54.0,52.9,29.65,ESE,113,14.0,15.0,96,0.00,,,0.06,Wunderground v.1.15,2013-06-14 06:03:00,
2013-06-14 02:09:00,53.9,52.8,29.65,ESE,115,15.0,16.0,96,0.05,,,0.07,Wunderground v.1.15,2013-06-14 06:09:00,
2013-06-14 02:13:00,53.8,52.7,29.64,ESE,119,16.0,17.0,96,0.05,,,0.07,Wunderground v.1.15,2013-06-14 06:13:00,
2013-06-14 02:18:00,53.8,52.7,29.64,ESE,113,16.0,17.0,96,0.05,,,0.08,Wunderground v.1.15,2013-06-14 06:18:00,
2013-06-14 02:23:00,53.8,53.0,29.64,ESE,115,16.0,18.0,97,0.05,,,0.08,Wunderground v.1.15,2013-06-14 06:23:00,
2013-06-14 02:28:00,53.8,53.0,29.64,ESE,120,14.0,19.0,97,0.05,,,0.08,Wunderground v.1.15,2013-06-14 06:28:00,
2013-06-14 02:33:00,53.7,52.9,29.64,ESE,118,16.0,17.0,97,0.05,,,0.09,Wunderground v.1.15,2013-06-14 06:33:00,
2013-06-14 02:38:00,53.7,52.9,29.64,ESE,121,15.0,17.0,97,0.05,,,0.09,Wunderground v.1.15,2013-06-14 06:38:00,
2013-06-14 02:43:00,53.7,52.9,29.63,ESE,121,15.0,17.0,97,0.04,,,0.09,Wunderground v.1.15,2013-06-14 06:43:00,
2013-06-14 02:48:00,53.6,52.8,29.63,ESE,122,16.0,17.0,97,0.04,,,0.10,Wunderground v.1.15,2013-06-14 06:48:00,
2013-06-14 02:53:00,53.6,52.8,29.63,SE,124,14.0,18.0,97,0.04,,,0.10,Wunderground v.1.15,2013-06-14 06:53:00,
2013-06-14 02:59:00,53.6,52.8,29.63,SE,128,14.0,18.0,97,0.04,,,0.11,Wunderground v.1.15,2013-06-14 06:59:00,
2013-06-14 03:04:00,53.6,52.8,29.63,SE,127,14.0,16.0,97,0.04,,,0.11,Wunderground v.1.15,2013-06-14 07:04:00,
2013-06-14 03:09:00,53.6,52.8,29.63,SE,131,14.0,18.0,97,0.06,,,0.12,Wunderground v.1.15,2013-06-14 07:09:00,
2013-06-14 03:14:00,53.5,52.7,29.63,SE,134,15.0,17.0,97,0.06,,,0.12,Wunderground v.1.15,2013-06-14 07:14:00,
2013-06-14 03:19:00,53.5,52.7,29.63,SE,136,14.0,17.0,97,0.06,,,0.12,Wunderground v.1.15,2013-06-14 07:19:00,
2013-06-14 03:24:00,53.5,52.7,29.63,SE,136,13.0,16.0,97,0.06,,,0.13,Wunderground v.1.15,2013-06-14 07:24:00,
2013-06-14 03:29:00,53.4,52.3,29.63,SE,133,13.0,16.0,96,0.07,,,0.14,Wunderground v.1.15,2013-06-14 07:29:00,
2013-06-14 03:34:00,53.3,52.2,29.63,SE,124,14.0,15.0,96,0.07,,,0.14,Wunderground v.1.15,2013-06-14 07:34:00,
2013-06-14 03:39:00,53.3,51.9,29.63,SE,125,15.0,15.0,95,0.06,,,0.15,Wunderground v.1.15,2013-06-14 07:39:00,
2013-06-14 03:44:00,53.2,51.5,29.64,ESE,120,14.0,16.0,94,0.06,,,0.15,Wunderground v.1.15,2013-06-14 07:44:00,
2013-06-14 03:49:00,53.3,51.9,29.64,ESE,116,13.0,16.0,95,0.06,,,0.16,Wunderground v.1.15,2013-06-14 07:49:00,
2013-06-14 03:54:00,53.4,52.0,29.64,ESE,116,15.0,17.0,95,0.06,,,0.16,Wunderground v.1.15,2013-06-14 07:54:00,
2013-06-14 03:59:00,53.4,52.0,29.64,ESE,115,15.0,17.0,95,0.07,,,0.17,Wunderground v.1.15,2013-06-14 07:59:00,
2013-06-14 04:04:00,53.3,51.9,29.65,ESE,118,16.0,18.0,95,0.08,,,0.18,Wunderground v.1.15,2013-06-14 08:04:00,
2013-06-14 04:09:00,53.2,51.8,29.65,ESE,115,14.0,18.0,95,0.08,,,0.18,Wunderground v.1.15,2013-06-14 08:09:00,
2013-06-14 04:14:00,53.2,51.5,29.65,ESE,117,13.0,17.0,94,0.08,,,0.19,Wunderground v.1.15,2013-06-14 08:14:00,
2013-06-14 04:19:00,53.2,51.5,29.65,ESE,116,15.0,17.0,94,0.14,,,0.20,Wunderground v.1.15,2013-06-14 08:19:00,
2013-06-14 04:24:00,53.1,51.7,29.65,ESE,116,14.0,16.0,95,0.11,,,0.21,Wunderground v.1.15,2013-06-14 08:24:00,
2013-06-14 04:29:00,53.0,51.6,29.65,ESE,113,15.0,15.0,95,0.11,,,0.22,Wunderground v.1.15,2013-06-14 08:29:00,
2013-06-14 04:34:00,53.0,51.6,29.65,ESE,115,15.0,17.0,95,0.10,,,0.23,Wunderground v.1.15,2013-06-14 08:34:00,
2013-06-14 04:39:00,53.0,51.6,29.65,ESE,113,15.0,15.0,95,0.11,,,0.24,Wunderground v.1.15,2013-06-14 08:39:00,
2013-06-14 04:44:00,53.0,51.9,29.64,ESE,114,15.0,17.0,96,0.07,,,0.24,Wunderground v.1.15,2013-06-14 08:44:00,
2013-06-14 04:49:00,52.8,51.7,29.64,ESE,113,17.0,17.0,96,0.07,,,0.25,Wunderground v.1.15,2013-06-14 08:49:00,
2013-06-14 04:54:00,52.8,51.7,29.64,ESE,113,15.0,18.0,96,0.06,,,0.25,Wunderground v.1.15,2013-06-14 08:54:00,
2013-06-14 04:59:00,52.8,52.0,29.65,ESE,107,16.0,16.0,97,0.05,,,0.26,Wunderground v.1.15,2013-06-14 08:59:00,
2013-06-14 05:04:00,52.7,52.2,29.65,ESE,112,17.0,19.0,98,0.05,,,0.26,Wunderground v.1.15,2013-06-14 09:04:00,
2013-06-14 05:09:00,52.6,52.1,29.65,ESE,110,19.0,19.0,98,0.05,,,0.26,Wunderground v.1.15,2013-06-14 09:09:00,
2013-06-14 05:14:00,52.6,52.1,29.65,ESE,108,16.0,19.0,98,0.04,,,0.27,Wunderground v.1.15,2013-06-14 09:14:00,
2013-06-14 05:19:00,52.5,52.0,29.65,ESE,110,15.0,18.0,98,0.04,,,0.27,Wunderground v.1.15,2013-06-14 09:19:00,
2013-06-14 05:24:00,52.4,51.9,29.65,ESE,112,17.0,19.0,98,0.04,,,0.27,Wunderground v.1.15,2013-06-14 09:24:00,
2013-06-14 05:29:00,52.5,52.0,29.65,ESE,114,14.0,17.0,98,0.04,,,0.28,Wunderground v.1.15,2013-06-14 09:29:00,
2013-06-14 05:34:00,52.5,52.0,29.66,ESE,105,16.0,18.0,98,0.04,,,0.28,Wunderground v.1.15,2013-06-14 09:34:00,
2013-06-14 05:39:00,52.5,52.0,29.66,ESE,107,15.0,16.0,98,0.04,,,0.28,Wunderground v.1.15,2013-06-14 09:39:00,
2013-06-14 05:44:00,52.4,51.9,29.65,ESE,105,15.0,17.0,98,0.04,,,0.29,Wunderground v.1.15,2013-06-14 09:44:00,
2013-06-14 05:49:00,52.4,51.9,29.66,ESE,107,15.0,16.0,98,0.04,,,0.29,Wunderground v.1.15,2013-06-14 09:49:00,
2013-06-14 05:54:00,52.4,51.9,29.66,ESE,107,15.0,16.0,98,0.04,,,0.29,Wunderground v.1.15,2013-06-14 09:54:00,
2013-06-14 06:00:00,52.4,51.9,29.66,ESE,113,12.0,14.0,98,0.04,,,0.30,Wunderground v.1.15,2013-06-14 10:00:00,
2013-06-14 06:05:00,52.5,52.0,29.66,ESE,110,13.0,14.0,98,0.04,,,0.30,Wunderground v.1.15,2013-06-14 10:05:00,
2013-06-14 06:10:00,52.6,52.1,29.66,ESE,115,14.0,14.0,98,0.06,,,0.31,Wunderground v.1.15,2013-06-14 10:10:00,
2013-06-14 06:15:00,52.6,52.1,29.65,ESE,112,13.0,14.0,98,0.08,,,0.32,Wunderground v.1.15,2013-06-14 10:15:00,
2013-06-14 06:20:00,52.6,51.8,29.66,ESE,117,11.0,12.0,97,0.08,,,0.32,Wunderground v.1.15,2013-06-14 10:20:00,
2013-06-14 06:25:00,52.7,51.9,29.66,ESE,114,12.0,13.0,97,0.06,,,0.32,Wunderground v.1.15,2013-06-14 10:25:00,
2013-06-14 06:30:00,52.6,51.8,29.66,ESE,113,11.0,12.0,97,0.05,,,0.33,Wunderground v.1.15,2013-06-14 10:30:00,
2013-06-14 06:35:00,52.6,51.8,29.66,ESE,110,12.0,13.0,97,0.05,,,0.33,Wunderground v.1.15,2013-06-14 10:35:00,
2013-06-14 06:40:00,52.7,51.9,29.66,ESE,107,12.0,12.0,97,0.07,,,0.34,Wunderground v.1.15,2013-06-14 10:40:00,
2013-06-14 06:45:00,52.7,51.9,29.66,ESE,114,11.0,13.0,97,0.11,,,0.35,Wunderground v.1.15,2013-06-14 10:45:00,
2013-06-14 06:50:00,52.7,51.9,29.66,ESE,107,11.0,12.0,97,0.12,,,0.36,Wunderground v.1.15,2013-06-14 10:50:00,
2013-06-14 06:55:00,52.7,51.6,29.67,ESE,108,11.0,13.0,96,0.13,,,0.37,Wunderground v.1.15,2013-06-14 10:55:00,
2013-06-14 07:00:00,52.8,51.7,29.67,ESE,109,11.0,12.0,96,0.10,,,0.38,Wunderground v.1.15,2013-06-14 11:00:00,
2013-06-14 07:05:00,52.8,51.7,29.67,ESE,110,12.0,13.0,96,0.11,,,0.39,Wunderground v.1.15,2013-06-14 11:05:00,
2013-06-14 07:10:00,52.8,51.7,29.67,ESE,107,8.0,11.0,96,0.11,,,0.40,Wunderground v.1.15,2013-06-14 11:10:00,
2013-06-14 07:15:00,52.8,51.7,29.67,ESE,117,7.0,11.0,96,0.09,,,0.41,Wunderground v.1.15,2013-06-14 11:15:00,
2013-06-14 07:20:00,52.8,51.7,29.67,ESE,117,7.0,8.0,96,0.10,,,0.42,Wunderground v.1.15,2013-06-14 11:20:00,
2013-06-14 07:25:00,52.8,51.7,29.67,ESE,107,5.0,8.0,96,0.18,,,0.43,Wunderground v.1.15,2013-06-14 11:25:00,
2013-06-14 07:30:00,52.7,51.6,29.67,ESE,108,5.0,6.0,96,0.10,,,0.44,Wunderground v.1.15,2013-06-14 11:30:00,
2013-06-14 07:35:00,52.7,51.6,29.67,ESE,107,4.0,6.0,96,0.10,,,0.45,Wunderground v.1.15,2013-06-14 11:35:00,
2013-06-14 07:40:00,52.6,51.8,29.68,ESE,106,5.0,6.0,97,0.10,,,0.45,Wunderground v.1.15,2013-06-14 11:40:00,
2013-06-14 07:45:00,52.7,51.6,29.68,ESE,102,5.0,7.0,96,0.06,,,0.46,Wunderground v.1.15,2013-06-14 11:45:00,
2013-06-14 07:50:00,52.7,51.9,29.68,East,98,6.0,7.0,97,0.06,,,0.46,Wunderground v.1.15,2013-06-14 11:50:00,
2013-06-14 07:55:00,52.7,51.6,29.68,East,100,5.0,7.0,96,0.05,,,0.46,Wunderground v.1.15,2013-06-14 11:55:00,
2013-06-14 08:00:00,52.7,51.6,29.68,ESE,106,7.0,8.0,96,0.04,,,0.47,Wunderground v.1.15,2013-06-14 12:00:00,
2013-06-14 08:05:00,52.7,51.6,29.68,ESE,107,3.0,8.0,96,0.04,,,0.47,Wunderground v.1.15,2013-06-14 12:05:00,
2013-06-14 08:10:00,52.6,51.5,29.68,East,93,4.0,4.0,96,0.04,,,0.47,Wunderground v.1.15,2013-06-14 12:10:00,
2013-06-14 08:15:00,52.6,51.5,29.68,SE,139,0.0,4.0,96,0.04,,,0.47,Wunderground v.1.15,2013-06-14 12:15:00,
2013-06-14 08:20:00,52.6,51.8,29.68,ENE,78,2.0,2.0,97,0.00,,,0.47,Wunderground v.1.15,2013-06-14 12:20:00,
2013-06-14 08:26:00,52.6,51.8,29.68,ENE,58,4.0,4.0,97,0.00,,,0.47,Wunderground v.1.15,2013-06-14 12:26:00,
2013-06-14 08:31:00,52.7,51.9,29.68,North,359,1.0,4.0,97,0.00,,,0.47,Wunderground v.1.15,2013-06-14 12:31:00,
2013-06-14 08:36:00,52.8,51.7,29.68,NNE,12,2.0,4.0,96,0.00,,,0.47,Wunderground v.1.15,2013-06-14 12:36:00,
2013-06-14 08:41:00,52.9,51.5,29.68,North,6,4.0,4.0,95,0.00,,,0.47,Wunderground v.1.15,2013-06-14 12:41:00,
2013-06-14 08:46:00,53.1,51.7,29.68,NE,45,4.0,5.0,95,0.00,,,0.47,Wunderground v.1.15,2013-06-14 12:46:00,
2013-06-14 08:51:00,53.2,51.5,29.68,North,9,6.0,6.0,94,0.00,,,0.47,Wunderground v.1.15,2013-06-14 12:51:00,
2013-06-14 08:56:00,53.3,51.6,29.68,North,8,6.0,7.0,94,0.00,,,0.47,Wunderground v.1.15,2013-06-14 12:56:00,
2013-06-14 09:01:00,53.3,51.3,29.68,North,350,4.0,5.0,93,0.00,,,0.47,Wunderground v.1.15,2013-06-14 13:01:00,
2013-06-14 09:06:00,53.4,51.7,29.68,North,9,3.0,5.0,94,0.00,,,0.47,Wunderground v.1.15,2013-06-14 13:06:00,
2013-06-14 09:11:00,53.5,51.5,29.69,ENE,57,5.0,6.0,93,0.00,,,0.47,Wunderground v.1.15,2013-06-14 13:11:00,
2013-06-14 09:16:00,53.7,52.0,29.69,NNE,20,8.0,9.0,94,0.00,,,0.47,Wunderground v.1.15,2013-06-14 13:16:00,
2013-06-14 09:21:00,53.7,52.0,29.69,NNE,33,5.0,7.0,94,0.00,,,0.47,Wunderground v.1.15,2013-06-14 13:21:00,
2013-06-14 09:26:00,53.8,52.1,29.69,NNE,20,7.0,7.0,94,0.00,,,0.47,Wunderground v.1.15,2013-06-14 13:26:00,
2013-06-14 09:31:00,53.9,52.2,29.68,North,353,6.0,9.0,94,0.00,,,0.47,Wunderground v.1.15,2013-06-14 13:31:00,
2013-06-14 09:37:00,53.8,52.1,29.68,NNE,33,10.0,10.0,94,0.00,,,0.47,Wunderground v.1.15,2013-06-14 13:37:00,
2013-06-14 09:42:00,53.9,52.2,29.68,NNE,23,9.0,10.0,94,0.00,,,0.47,Wunderground v.1.15,2013-06-14 13:42:00,
2013-06-14 09:47:00,53.9,52.2,29.68,NE,36,9.0,10.0,94,0.00,,,0.47,Wunderground v.1.15,2013-06-14 13:47:00,
2013-06-14 09:52:00,54.1,52.1,29.68,NNE,25,9.0,10.0,93,0.00,,,0.47,Wunderground v.1.15,2013-06-14 13:52:00,
2013-06-14 09:57:00,54.1,52.4,29.68,NE,37,8.0,10.0,94,0.00,,,0.47,Wunderground v.1.15,2013-06-14 13:57:00,
2013-06-14 10:02:00,54.2,52.5,29.68,NNE,25,9.0,11.0,94,0.00,,,0.47,Wunderground v.1.15,2013-06-14 14:02:00,
2013-06-14 10:07:00,54.4,52.7,29.68,NNE,20,8.0,11.0,94,0.00,,,0.47,Wunderground v.1.15,2013-06-14 14:07:00,
2013-06-14 10:12:00,54.5,52.8,29.68,NNE,29,8.0,9.0,94,0.00,,,0.47,Wunderground v.1.15,2013-06-14 14:12:00,
2013-06-14 10:17:00,54.6,53.2,29.68,NE,55,7.0,9.0,95,0.00,,,0.47,Wunderground v.1.15,2013-06-14 14:17:00,
2013-06-14 10:22:00,54.9,53.5,29.68,NNE,22,7.0,7.0,95,0.00,,,0.47,Wunderground v.1.15,2013-06-14 14:22:00,
2013-06-14 10:27:00,54.9,53.2,29.68,NE,37,8.0,9.0,94,0.00,,,0.47,Wunderground v.1.15,2013-06-14 14:27:00,
2013-06-14 10:32:00,54.9,53.2,29.68,NNE,16,7.0,8.0,94,0.00,,,0.47,Wunderground v.1.15,2013-06-14 14:32:00,
2013-06-14 10:37:00,54.9,53.2,29.67,NNE,33,7.0,8.0,94,0.00,,,0.47,Wunderground v.1.15,2013-06-14 14:37:00,
2013-06-14 10:42:00,55.0,53.3,29.67,NNE,19,8.0,8.0,94,0.00,,,0.47,Wunderground v.1.15,2013-06-14 14:42:00,
2013-06-14 10:47:00,55.1,53.1,29.67,North,354,6.0,8.0,93,0.00,,,0.47,Wunderground v.1.15,2013-06-14 14:47:00,
2013-06-14 10:52:00,55.1,53.1,29.67,NNE,20,8.0,9.0,93,0.00,,,0.47,Wunderground v.1.15,2013-06-14 14:52:00,
2013-06-14 10:57:00,55.1,53.1,29.67,NNE,22,7.0,9.0,93,0.00,,,0.47,Wunderground v.1.15,2013-06-14 14:57:00,
2013-06-14 11:02:00,55.1,52.8,29.67,NNE,15,7.0,8.0,92,0.00,,,0.47,Wunderground v.1.15,2013-06-14 15:02:00,
2013-06-14 11:07:00,55.2,53.2,29.68,NNE,12,6.0,8.0,93,0.00,,,0.47,Wunderground v.1.15,2013-06-14 15:07:00,
2013-06-14 11:12:00,55.3,53.0,29.67,NNE,20,7.0,8.0,92,0.00,,,0.47,Wunderground v.1.15,2013-06-14 15:12:00,
2013-06-14 11:17:00,55.4,53.1,29.67,NNE,16,7.0,8.0,92,0.00,,,0.47,Wunderground v.1.15,2013-06-14 15:17:00,
2013-06-14 11:23:00,55.5,53.5,29.67,NNE,15,7.0,8.0,93,0.00,,,0.47,Wunderground v.1.15,2013-06-14 15:23:00,
2013-06-14 11:28:00,55.7,53.7,29.67,North,11,5.0,8.0,93,0.00,,,0.47,Wunderground v.1.15,2013-06-14 15:28:00,
2013-06-14 11:32:00,56.3,54.3,29.67,NNE,15,5.0,7.0,93,0.00,,,0.47,Wunderground v.1.15,2013-06-14 15:32:00,
2013-06-14 11:38:00,56.3,54.0,29.68,NNE,12,6.0,7.0,92,0.00,,,0.47,Wunderground v.1.15,2013-06-14 15:38:00,
2013-06-14 11:43:00,56.3,54.0,29.68,North,356,6.0,6.0,92,0.00,,,0.47,Wunderground v.1.15,2013-06-14 15:43:00,
2013-06-14 11:48:00,56.4,54.1,29.68,NNW,346,5.0,6.0,92,0.00,,,0.47,Wunderground v.1.15,2013-06-14 15:48:00,
2013-06-14 11:53:00,56.5,54.2,29.68,NNW,338,4.0,5.0,92,0.00,,,0.47,Wunderground v.1.15,2013-06-14 15:53:00,
2013-06-14 11:58:00,56.6,54.0,29.68,NNW,338,5.0,5.0,91,0.00,,,0.47,Wunderground v.1.15,2013-06-14 15:58:00,
2013-06-14 12:03:00,56.6,54.0,29.68,NNW,340,6.0,6.0,91,0.00,,,0.47,Wunderground v.1.15,2013-06-14 16:03:00,
2013-06-14 12:08:00,57.1,54.8,29.68,NW,326,4.0,6.0,92,0.00,,,0.47,Wunderground v.1.15,2013-06-14 16:08:00,
2013-06-14 12:13:00,57.6,55.0,29.68,NW,316,4.0,5.0,91,0.00,,,0.47,Wunderground v.1.15,2013-06-14 16:13:00,
2013-06-14 12:18:00,58.2,55.6,29.68,WNW,302,4.0,5.0,91,0.00,,,0.47,Wunderground v.1.15,2013-06-14 16:18:00,
2013-06-14 12:23:00,58.0,55.1,29.68,West,277,5.0,5.0,90,0.00,,,0.47,Wunderground v.1.15,2013-06-14 16:23:00,
2013-06-14 12:28:00,57.8,54.9,29.68,WNW,290,3.0,5.0,90,0.00,,,0.47,Wunderground v.1.15,2013-06-14 16:28:00,
2013-06-14 12:33:00,57.8,55.5,29.68,WNW,282,4.0,5.0,92,0.00,,,0.47,Wunderground v.1.15,2013-06-14 16:33:00,
2013-06-14 12:38:00,57.6,55.0,29.68,West,281,7.0,7.0,91,0.00,,,0.47,Wunderground v.1.15,2013-06-14 16:38:00,
2013-06-14 12:43:00,57.5,54.9,29.68,West,278,8.0,9.0,91,0.00,,,0.47,Wunderground v.1.15,2013-06-14 16:43:00,
2013-06-14 12:48:00,57.9,55.0,29.68,WNW,286,7.0,9.0,90,0.00,,,0.47,Wunderground v.1.15,2013-06-14 16:48:00,
2013-06-14 12:53:00,58.0,55.4,29.68,WNW,287,7.0,8.0,91,0.00,,,0.47,Wunderground v.1.15,2013-06-14 16:53:00,
2013-06-14 12:58:00,58.0,54.8,29.68,WNW,284,7.0,8.0,89,0.00,,,0.47,Wunderground v.1.15,2013-06-14 16:58:00,
2013-06-14 13:03:00,58.1,55.2,29.68,WNW,288,6.0,8.0,90,0.00,,,0.47,Wunderground v.1.15,2013-06-14 17:03:00,
2013-06-14 13:08:00,58.3,55.4,29.68,West,277,7.0,9.0,90,0.00,,,0.47,Wunderground v.1.15,2013-06-14 17:08:00,
2013-06-14 13:13:00,58.0,54.8,29.68,West,280,8.0,9.0,89,0.00,,,0.47,Wunderground v.1.15,2013-06-14 17:13:00,
2013-06-14 13:18:00,58.5,55.0,29.68,WNW,284,7.0,9.0,88,0.00,,,0.47,Wunderground v.1.15,2013-06-14 17:18:00,
2013-06-14 13:23:00,58.8,54.9,29.67,West,278,8.0,9.0,87,0.00,,,0.47,Wunderground v.1.15,2013-06-14 17:23:00,
2013-06-14 13:28:00,58.7,54.5,29.67,West,280,8.0,9.0,86,0.00,,,0.47,Wunderground v.1.15,2013-06-14 17:28:00,
2013-06-14 13:33:00,59.1,54.3,29.67,West,278,8.0,8.0,84,0.00,,,0.47,Wunderground v.1.15,2013-06-14 17:33:00,
2013-06-14 13:38:00,59.2,54.7,29.67,West,277,8.0,9.0,85,0.00,,,0.47,Wunderground v.1.15,2013-06-14 17:38:00,
2013-06-14 13:43:00,59.3,54.8,29.67,West,264,7.0,9.0,85,0.00,,,0.47,Wunderground v.1.15,2013-06-14 17:43:00,
2013-06-14 13:48:00,59.6,54.8,29.67,West,272,7.0,9.0,84,0.00,,,0.47,Wunderground v.1.15,2013-06-14 17:48:00,
2013-06-14 13:53:00,59.9,55.1,29.67,West,270,7.0,9.0,84,0.00,,,0.47,Wunderground v.1.15,2013-06-14 17:53:00,
2013-06-14 13:58:00,60.3,55.8,29.67,WNW,291,7.0,9.0,85,0.00,,,0.47,Wunderground v.1.15,2013-06-14 17:58:00,
2013-06-14 14:03:00,60.4,55.2,29.67,West,267,8.0,9.0,83,0.00,,,0.47,Wunderground v.1.15,2013-06-14 18:03:00,
2013-06-14 14:08:00,60.5,54.6,29.67,West,270,9.0,10.0,81,0.00,,,0.47,Wunderground v.1.15,2013-06-14 18:08:00,
2013-06-14 14:13:00,60.6,54.7,29.67,WSW,252,8.0,10.0,81,0.00,,,0.47,Wunderground v.1.15,2013-06-14 18:13:00,
2013-06-14 14:18:00,60.6,55.4,29.67,WSW,252,7.0,11.0,83,0.00,,,0.47,Wunderground v.1.15,2013-06-14 18:18:00,
2013-06-14 14:23:00,60.4,54.2,29.67,West,263,8.0,13.0,80,0.00,,,0.47,Wunderground v.1.15,2013-06-14 18:23:00,
2013-06-14 14:29:00,60.2,54.0,29.67,West,262,10.0,13.0,80,0.00,,,0.47,Wunderground v.1.15,2013-06-14 18:29:00,
2013-06-14 14:34:00,60.3,54.1,29.67,WSW,254,10.0,11.0,80,0.00,,,0.47,Wunderground v.1.15,2013-06-14 18:34:00,
2013-06-14 14:39:00,60.4,54.5,29.67,West,267,9.0,11.0,81,0.00,,,0.47,Wunderground v.1.15,2013-06-14 18:39:00,
2013-06-14 14:44:00,60.5,54.0,29.66,West,260,8.0,10.0,79,0.00,,,0.47,Wunderground v.1.15,2013-06-14 18:44:00,
2013-06-14 14:49:00,60.7,53.8,29.66,WSW,257,11.0,11.0,78,0.00,,,0.47,Wunderground v.1.15,2013-06-14 18:49:00,
2013-06-14 14:54:00,60.8,53.2,29.66,West,270,9.0,11.0,76,0.00,,,0.47,Wunderground v.1.15,2013-06-14 18:54:00,
2013-06-14 14:59:00,61.1,54.5,29.66,West,260,9.0,11.0,79,0.00,,,0.47,Wunderground v.1.15,2013-06-14 18:59:00,
2013-06-14 15:04:00,61.2,53.9,29.66,WSW,257,7.0,10.0,77,0.00,,,0.47,Wunderground v.1.15,2013-06-14 19:04:00,
2013-06-14 15:09:00,61.5,53.5,29.65,West,264,7.0,10.0,75,0.00,,,0.47,Wunderground v.1.15,2013-06-14 19:09:00,
2013-06-14 15:14:00,61.8,53.4,29.65,West,262,9.0,10.0,74,0.00,,,0.47,Wunderground v.1.15,2013-06-14 19:14:00,
2013-06-14 15:19:00,62.0,53.6,29.65,WSW,252,9.0,10.0,74,0.00,,,0.47,Wunderground v.1.15,2013-06-14 19:19:00,
2013-06-14 15:24:00,62.6,54.2,29.65,West,260,6.0,10.0,74,0.00,,,0.47,Wunderground v.1.15,2013-06-14 19:24:00,
2013-06-14 15:29:00,63.1,55.0,29.65,WSW,239,10.0,10.0,75,0.00,,,0.47,Wunderground v.1.15,2013-06-14 19:29:00,
2013-06-14 15:34:00,63.0,54.9,29.65,SW,232,8.0,11.0,75,0.00,,,0.47,Wunderground v.1.15,2013-06-14 19:34:00,
2013-06-14 15:39:00,62.9,55.6,29.65,SW,215,9.0,11.0,77,0.00,,,0.47,Wunderground v.1.15,2013-06-14 19:39:00,
2013-06-14 15:44:00,62.6,55.3,29.65,SW,229,9.0,11.0,77,0.00,,,0.47,Wunderground v.1.15,2013-06-14 19:44:00,
2013-06-14 15:49:00,62.7,55.0,29.65,WSW,248,10.0,12.0,76,0.00,,,0.47,Wunderground v.1.15,2013-06-14 19:49:00,
2013-06-14 15:54:00,62.9,55.2,29.65,WSW,239,9.0,11.0,76,0.00,,,0.47,Wunderground v.1.15,2013-06-14 19:54:00,
2013-06-14 15:59:00,63.3,55.2,29.65,WSW,244,10.0,11.0,75,0.00,,,0.47,Wunderground v.1.15,2013-06-14 19:59:00,
2013-06-14 16:04:00,63.4,55.7,29.65,WSW,240,9.0,9.0,76,0.00,,,0.47,Wunderground v.1.15,2013-06-14 20:04:00,
2013-06-14 16:09:00,63.5,55.4,29.65,SW,215,8.0,10.0,75,0.00,,,0.47,Wunderground v.1.15,2013-06-14 20:09:00,
2013-06-14 16:14:00,63.3,54.9,29.65,SW,225,10.0,11.0,74,0.00,,,0.47,Wunderground v.1.15,2013-06-14 20:14:00,
2013-06-14 16:19:00,62.8,54.8,29.64,SSW,197,7.0,11.0,75,0.00,,,0.47,Wunderground v.1.15,2013-06-14 20:19:00,
2013-06-14 16:24:00,62.1,54.1,29.64,SW,232,10.0,11.0,75,0.00,,,0.47,Wunderground v.1.15,2013-06-14 20:24:00,
2013-06-14 16:29:00,61.6,53.6,29.64,SW,221,10.0,12.0,75,0.00,,,0.47,Wunderground v.1.15,2013-06-14 20:29:00,
2013-06-14 16:34:00,61.6,54.0,29.64,WSW,242,9.0,11.0,76,0.00,,,0.47,Wunderground v.1.15,2013-06-14 20:34:00,
2013-06-14 16:39:00,62.0,54.3,29.64,SW,235,7.0,11.0,76,0.00,,,0.47,Wunderground v.1.15,2013-06-14 20:39:00,
2013-06-14 16:44:00,62.5,54.5,29.64,WSW,243,9.0,10.0,75,0.00,,,0.47,Wunderground v.1.15,2013-06-14 20:44:00,
2013-06-14 16:49:00,62.8,54.4,29.64,WSW,252,11.0,11.0,74,0.00,,,0.47,Wunderground v.1.15,2013-06-14 20:49:00,
2013-06-14 16:54:00,62.6,54.2,29.64,WSW,252,10.0,11.0,74,0.00,,,0.47,Wunderground v.1.15,2013-06-14 20:54:00,
2013-06-14 16:59:00,62.5,54.5,29.64,SW,235,10.0,11.0,75,0.00,,,0.47,Wunderground v.1.15,2013-06-14 20:59:00,
2013-06-14 17:04:00,63.0,54.6,29.64,West,263,7.0,10.0,74,0.00,,,0.47,Wunderground v.1.15,2013-06-14 21:04:00,
2013-06-14 17:09:00,63.0,54.6,29.64,WSW,257,10.0,10.0,74,0.00,,,0.47,Wunderground v.1.15,2013-06-14 21:09:00,
2013-06-14 17:14:00,62.5,54.5,29.64,West,267,9.0,10.0,75,0.00,,,0.47,Wunderground v.1.15,2013-06-14 21:14:00,
2013-06-14 17:19:00,63.1,54.7,29.64,West,264,9.0,9.0,74,0.00,,,0.47,Wunderground v.1.15,2013-06-14 21:19:00,
2013-06-14 17:24:00,63.0,54.9,29.64,West,271,7.0,11.0,75,0.00,,,0.47,Wunderground v.1.15,2013-06-14 21:24:00,
2013-06-14 17:29:00,62.8,55.1,29.64,West,264,9.0,9.0,76,0.00,,,0.47,Wunderground v.1.15,2013-06-14 21:29:00,
2013-06-14 17:34:00,63.3,55.2,29.64,West,271,9.0,9.0,75,0.00,,,0.47,Wunderground v.1.15,2013-06-14 21:34:00,
2013-06-14 17:39:00,63.3,55.2,29.64,West,263,7.0,9.0,75,0.00,,,0.47,Wunderground v.1.15,2013-06-14 21:39:00,
2013-06-14 17:44:00,63.3,56.3,29.64,WSW,246,8.0,10.0,78,0.00,,,0.47,Wunderground v.1.15,2013-06-14 21:44:00,
2013-06-14 17:49:00,63.0,56.7,29.64,SSW,198,5.0,8.0,80,0.00,,,0.47,Wunderground v.1.15,2013-06-14 21:49:00,
2013-06-14 17:54:00,63.2,56.9,29.64,WSW,244,6.0,10.0,80,0.00,,,0.47,Wunderground v.1.15,2013-06-14 21:54:00,
2013-06-14 18:00:00,63.5,56.9,29.64,WSW,243,6.0,9.0,79,0.00,,,0.47,Wunderground v.1.15,2013-06-14 22:00:00,
2013-06-14 18:05:00,63.0,56.4,29.64,WSW,255,10.0,11.0,79,0.00,,,0.47,Wunderground v.1.15,2013-06-14 22:05:00,
2013-06-14 18:10:00,63.0,56.7,29.64,WSW,255,10.0,11.0,80,0.00,,,0.47,Wunderground v.1.15,2013-06-14 22:10:00,
2013-06-14 18:15:00,63.5,56.2,29.64,WSW,257,9.0,11.0,77,0.00,,,0.47,Wunderground v.1.15,2013-06-14 22:15:00,
2013-06-14 18:20:00,64.7,55.8,29.64,West,263,7.0,9.0,73,0.00,,,0.47,Wunderground v.1.15,2013-06-14 22:20:00,
2013-06-14 18:25:00,65.3,55.7,29.64,West,260,7.0,9.0,71,0.00,,,0.47,Wunderground v.1.15,2013-06-14 22:25:00,
2013-06-14 18:30:00,65.5,55.5,29.64,West,260,7.0,7.0,70,0.00,,,0.47,Wunderground v.1.15,2013-06-14 22:30:00,
2013-06-14 18:35:00,65.5,54.7,29.64,West,280,8.0,8.0,68,0.00,,,0.47,Wunderground v.1.15,2013-06-14 22:35:00,
2013-06-14 18:40:00,66.0,54.7,29.65,West,277,8.0,8.0,67,0.00,,,0.47,Wunderground v.1.15,2013-06-14 22:40:00,
2013-06-14 18:45:00,66.0,55.5,29.65,West,274,8.0,9.0,69,0.00,,,0.47,Wunderground v.1.15,2013-06-14 22:45:00,
2013-06-14 18:50:00,65.5,56.2,29.64,West,272,8.0,9.0,72,0.00,,,0.47,Wunderground v.1.15,2013-06-14 22:50:00,
2013-06-14 18:55:00,65.1,57.3,29.65,West,278,10.0,11.0,76,0.00,,,0.47,Wunderground v.1.15,2013-06-14 22:55:00,
2013-06-14 19:00:00,65.9,55.0,29.64,West,278,8.0,9.0,68,0.00,,,0.47,Wunderground v.1.15,2013-06-14 23:00:00,
2013-06-14 19:05:00,66.7,54.6,29.64,WNW,284,10.0,10.0,65,0.00,,,0.47,Wunderground v.1.15,2013-06-14 23:05:00,
2013-06-14 19:10:00,66.1,56.4,29.65,WNW,285,12.0,12.0,71,0.00,,,0.47,Wunderground v.1.15,2013-06-14 23:10:00,
2013-06-14 19:15:00,65.6,55.5,29.65,WNW,290,12.0,12.0,70,0.00,,,0.47,Wunderground v.1.15,2013-06-14 23:15:00,
2013-06-14 19:20:00,66.7,53.7,29.65,WNW,294,11.0,11.0,63,0.00,,,0.47,Wunderground v.1.15,2013-06-14 23:20:00,
2013-06-14 19:25:00,67.4,53.0,29.65,WNW,297,9.0,12.0,60,0.00,,,0.47,Wunderground v.1.15,2013-06-14 23:25:00,
2013-06-14 19:30:00,68.0,53.6,29.65,WNW,300,11.0,12.0,60,0.00,,,0.47,Wunderground v.1.15,2013-06-14 23:30:00,
2013-06-14 19:35:00,68.5,52.7,29.65,WNW,302,11.0,12.0,57,0.00,,,0.47,Wunderground v.1.15,2013-06-14 23:35:00,
2013-06-14 19:40:00,68.8,52.5,29.65,NW,306,12.0,12.0,56,0.00,,,0.47,Wunderground v.1.15,2013-06-14 23:40:00,
2013-06-14 19:45:00,69.6,53.2,29.65,NW,305,13.0,13.0,56,0.00,,,0.47,Wunderground v.1.15,2013-06-14 23:45:00,
2013-06-14 19:50:00,69.7,53.3,29.65,NW,312,10.0,12.0,56,0.00,,,0.47,Wunderground v.1.15,2013-06-14 23:50:00,
2013-06-14 19:55:00,69.6,53.2,29.65,NW,306,12.0,13.0,56,0.00,,,0.47,Wunderground v.1.15,2013-06-14 23:55:00,
2013-06-14 20:00:00,69.0,53.1,29.65,NW,311,10.0,11.0,57,0.00,,,0.47,Wunderground v.1.15,2013-06-15 00:00:00,
2013-06-14 20:05:00,69.4,53.5,29.65,NW,310,10.0,11.0,57,0.00,,,0.47,Wunderground v.1.15,2013-06-15 00:05:00,
2013-06-14 20:10:00,69.2,53.3,29.65,NW,309,12.0,12.0,57,0.00,,,0.47,Wunderground v.1.15,2013-06-15 00:10:00,
2013-06-14 20:15:00,69.1,53.7,29.66,NW,309,10.0,12.0,58,0.00,,,0.47,Wunderground v.1.15,2013-06-15 00:15:00,
2013-06-14 20:20:00,69.3,53.9,29.66,NW,311,11.0,12.0,58,0.00,,,0.47,Wunderground v.1.15,2013-06-15 00:20:00,
2013-06-14 20:26:00,69.7,55.2,29.66,NW,307,11.0,12.0,60,0.00,,,0.47,Wunderground v.1.15,2013-06-15 00:26:00,
2013-06-14 20:31:00,69.1,54.6,29.66,WNW,302,10.0,11.0,60,0.00,,,0.47,Wunderground v.1.15,2013-06-15 00:31:00,
2013-06-14 20:36:00,69.8,53.9,29.66,NW,304,11.0,12.0,57,0.00,,,0.47,Wunderground v.1.15,2013-06-15 00:36:00,
2013-06-14 20:41:00,69.7,56.1,29.66,NW,305,10.0,11.0,62,0.00,,,0.47,Wunderground v.1.15,2013-06-15 00:41:00,
2013-06-14 20:46:00,69.0,56.3,29.67,NW,304,7.0,11.0,64,0.00,,,0.47,Wunderground v.1.15,2013-06-15 00:46:00,
2013-06-14 20:51:00,67.0,56.5,29.66,WNW,283,7.0,8.0,69,0.00,,,0.47,Wunderground v.1.15,2013-06-15 00:51:00,
2013-06-14 20:56:00,67.0,55.7,29.66,WNW,297,8.0,9.0,67,0.00,,,0.47,Wunderground v.1.15,2013-06-15 00:56:00,
2013-06-14 21:01:00,67.5,54.9,29.66,West,264,6.0,8.0,64,0.00,,,0.47,Wunderground v.1.15,2013-06-15 01:01:00,
2013-06-14 21:06:00,66.9,56.0,29.67,West,270,6.0,8.0,68,0.00,,,0.47,Wunderground v.1.15,2013-06-15 01:06:00,
2013-06-14 21:11:00,66.7,55.8,29.67,WNW,295,9.0,9.0,68,0.00,,,0.47,Wunderground v.1.15,2013-06-15 01:11:00,
2013-06-14 21:16:00,66.7,55.8,29.67,WNW,284,8.0,10.0,68,0.00,,,0.47,Wunderground v.1.15,2013-06-15 01:16:00,
2013-06-14 21:21:00,66.9,55.6,29.67,WNW,288,8.0,9.0,67,0.00,,,0.47,Wunderground v.1.15,2013-06-15 01:21:00,
2013-06-14 21:26:00,67.1,55.4,29.67,WNW,293,7.0,9.0,66,0.00,,,0.47,Wunderground v.1.15,2013-06-15 01:26:00,
2013-06-14 21:31:00,66.8,55.9,29.68,NW,307,7.0,8.0,68,0.00,,,0.47,Wunderground v.1.15,2013-06-15 01:31:00,
2013-06-14 21:36:00,65.6,56.7,29.70,ESE,114,18.0,30.0,73,0.00,,,0.47,Wunderground v.1.15,2013-06-15 01:36:00,
2013-06-14 21:41:00,65.0,56.5,29.70,ESE,122,11.0,18.0,74,0.00,,,0.47,Wunderground v.1.15,2013-06-15 01:41:00,
2013-06-14 21:46:00,64.3,56.6,29.70,SSE,152,7.0,18.0,76,0.00,,,0.47,Wunderground v.1.15,2013-06-15 01:46:00,
2013-06-14 21:51:00,64.1,56.0,29.69,South,176,8.0,9.0,75,0.00,,,0.47,Wunderground v.1.15,2013-06-15 01:51:00,
2013-06-14 21:56:00,64.8,54.8,29.69,SSE,167,2.0,9.0,70,0.00,,,0.47,Wunderground v.1.15,2013-06-15 01:56:00,
2013-06-14 22:01:00,65.9,55.0,29.68,SE,143,3.0,5.0,68,0.00,,,0.47,Wunderground v.1.15,2013-06-15 02:01:00,
2013-06-14 22:06:00,66.9,53.9,29.68,ESE,105,3.0,6.0,63,0.00,,,0.47,Wunderground v.1.15,2013-06-15 02:06:00,
2013-06-14 22:11:00,67.4,53.9,29.68,ENE,75,2.0,4.0,62,0.00,,,0.47,Wunderground v.1.15,2013-06-15 02:11:00,
2013-06-14 22:16:00,67.2,54.2,29.69,ESE,116,3.0,4.0,63,0.00,,,0.47,Wunderground v.1.15,2013-06-15 02:16:00,
2013-06-14 22:21:00,67.0,54.4,29.69,ESE,120,5.0,5.0,64,0.00,,,0.47,Wunderground v.1.15,2013-06-15 02:21:00,
2013-06-14 22:26:00,67.5,53.6,29.69,ESE,118,5.0,7.0,61,0.00,,,0.47,Wunderground v.1.15,2013-06-15 02:26:00,
2013-06-14 22:31:00,67.7,53.8,29.69,SE,124,6.0,7.0,61,0.00,,,0.47,Wunderground v.1.15,2013-06-15 02:31:00,
2013-06-14 22:36:00,67.1,54.5,29.69,SE,135,5.0,7.0,64,0.00,,,0.47,Wunderground v.1.15,2013-06-15 02:36:00,
2013-06-14 22:42:00,67.2,54.2,29.70,SE,136,8.0,8.0,63,0.00,,,0.47,Wunderground v.1.15,2013-06-15 02:42:00,
2013-06-14 22:47:00,67.2,53.7,29.70,SE,129,9.0,11.0,62,0.00,,,0.47,Wunderground v.1.15,2013-06-15 02:47:00,
2013-06-14 22:52:00,66.8,53.8,29.69,SE,140,7.0,8.0,63,0.00,,,0.47,Wunderground v.1.15,2013-06-15 02:52:00,
2013-06-14 22:57:00,66.2,54.1,29.69,SSE,150,5.0,8.0,65,0.00,,,0.47,Wunderground v.1.15,2013-06-15 02:57:00,
2013-06-14 23:02:00,65.8,54.1,29.69,South,177,3.0,6.0,66,0.00,,,0.47,Wunderground v.1.15,2013-06-15 03:02:00,
2013-06-14 23:07:00,65.4,54.2,29.69,SSW,198,1.0,6.0,67,0.00,,,0.47,Wunderground v.1.15,2013-06-15 03:07:00,
2013-06-14 23:12:00,65.0,54.2,29.70,SSW,198,0.0,2.0,68,0.00,,,0.47,Wunderground v.1.15,2013-06-15 03:12:00,
2013-06-14 23:17:00,64.8,54.4,29.70,South,184,4.0,4.0,69,0.00,,,0.47,Wunderground v.1.15,2013-06-15 03:17:00,
2013-06-14 23:22:00,64.0,54.8,29.71,SSE,165,5.0,6.0,72,0.00,,,0.47,Wunderground v.1.15,2013-06-15 03:22:00,
2013-06-14 23:27:00,63.5,54.7,29.71,SSE,160,2.0,6.0,73,0.00,,,0.47,Wunderground v.1.15,2013-06-15 03:27:00,
2013-06-14 23:32:00,63.3,54.5,29.71,SSW,192,3.0,4.0,73,0.00,,,0.47,Wunderground v.1.15,2013-06-15 03:32:00,
2013-06-14 23:37:00,63.0,54.2,29.71,South,184,3.0,4.0,73,0.00,,,0.47,Wunderground v.1.15,2013-06-15 03:37:00,
2013-06-14 23:42:00,63.3,54.1,29.72,SSE,165,4.0,6.0,72,0.00,,,0.47,Wunderground v.1.15,2013-06-15 03:42:00,
2013-06-14 23:47:00,63.7,54.1,29.72,SSE,152,2.0,6.0,71,0.00,,,0.47,Wunderground v.1.15,2013-06-15 03:47:00,
2013-06-14 23:52:00,63.8,54.6,29.72,SSE,160,0.0,3.0,72,0.00,,,0.47,Wunderground v.1.15,2013-06-15 03:52:00,
2013-06-14 23:57:00,63.2,54.4,29.72,West,274,0.0,3.0,73,0.00,,,0.47,Wunderground v.1.15,2013-06-15 03:57:00,